Back to catalog

STARLINK-36139

AliveCommunicationsVLEO
NORAD 66966·PAYLOAD·🇺🇸 United States

Launched Dec 8, 2025 from Cape Canaveral Space Force Station

Loading…

Next Passes (next 24 hours)

TLE

FreshSource: CelesTrak SupGP

Epoch: Sep 14, 2026, 22:55 UTC

1 66966C 25288H   26257.95534722  .00022207  00000+0  80412-3 0  2574
2 66966  43.0015  34.3702 0001380 275.3852 154.3532 15.27576293    12

Track STARLINK-36139 in real time with AllMySat

Download on the App Store